Liege, Belgium

9:40 PM CET on December 03, 2016 (GMT +0100)
Liege

Weather History for EBLG - October, 2011

Change the Weather History Date:

Saturday, October 29, 2011

  Actual Average Record
Temperature  
Mean Temperature 59 °F -  
Max Temperature 63 °F 53 °F 71 °F (2005)
Min Temperature 55 °F 43 °F 24 °F (1997)
Degree Days  
Heating Degree Days 6    
Growing Degree Days 9 (Base 50)    
Moisture  
Dew Point 49 °F    
Average Humidity 69    
Maximum Humidity 77    
Minimum Humidity 52    
Precipitation  
Precipitation 0.00 in - - ()
Sea Level Pressure  
Sea Level Pressure 30.22 in    
Wind  
Wind Speed 6 mph ()    
Max Wind Speed 12 mph    
Max Gust Speed 22 mph    
Visibility 8.3 miles    
Events Rain    
Averages and records for this station are not official NWS values.
T = Trace of Precipitation, MM = Missing Value Source: Averaged Metar Reports

Daily Weather History Graph

Daily Weather History Graph

Search for Another Location

Airport or City:

Trip Planner

Search our weather history database for the weather conditions in past years. The results will help you decide how hot, cold, wet, or windy it might be!

Date:

Astronomy

Oct. 29, 2011 Rise Set
Actual Time 8:23 AM CEST 6:19 PM CEST
Civil Twilight 7:49 AM CEST 6:53 PM CEST
Nautical Twilight 7:10 AM CEST 7:32 PM CEST
Astronomical Twilight 6:32 AM CEST 8:09 PM CEST
Moon 11:50 AM CEST (10/29) 8:04 PM CEST (10/29)
Length of Visible Light 11h 04m
Length of Day
9h 55m
Waxing Crescent, 10% of the Moon is Illuminated
Oct 29
Waxing Crescent
Nov 2
First Quarter
Nov 10
Full
Nov 18
Last Quarter
Nov 25
New

Hourly Weather History & Observations

Time (CEST) Temp. Dew Point Humidity Pressure Visibility Wind Dir Wind Speed Gust Speed Precip Events Conditions
12:20 AM 57.2 °F 48.2 °F 72% 30.27 in - South 5.8 mph - N/A   Clear
12:50 AM 57.2 °F 50.0 °F 77% 30.27 in - SSE 4.6 mph - N/A   Clear
1:20 AM 57.2 °F 50.0 °F 77% 30.27 in 6.2 mi SSE 4.6 mph - N/A   Mostly Cloudy
1:50 AM 57.2 °F 48.2 °F 72% 30.27 in - SSE 5.8 mph - N/A   Clear
2:00 AM 57 °F 49 °F 67% 30.29 in 19 mi SSE 4.5 mph - -   Mostly Cloudy
2:20 AM 57.2 °F 48.2 °F 72% 30.27 in 6.2 mi South 5.8 mph - N/A   Mostly Cloudy
2:50 AM 57.2 °F 48.2 °F 72% 30.27 in 6.2 mi SSW 3.5 mph - N/A   Mostly Cloudy
3:20 AM 57.2 °F 48.2 °F 72% 30.27 in 6.2 mi South 6.9 mph - N/A   Mostly Cloudy
3:50 AM 57.2 °F 46.4 °F 67% 30.27 in 6.2 mi South 8.1 mph - N/A   Mostly Cloudy
4:20 AM 57.2 °F 48.2 °F 72% 30.27 in 6.2 mi SSE 6.9 mph - N/A   Mostly Cloudy
4:50 AM 57.2 °F 46.4 °F 67% 30.24 in 6.2 mi SSE 6.9 mph - N/A   Mostly Cloudy
5:00 AM 56 °F 47 °F 63% 30.26 in 16 mi SSE 6.7 mph - -   Mostly Cloudy
5:20 AM 55.4 °F 46.4 °F 72% 30.24 in 6.2 mi SSE 8.1 mph - N/A   Mostly Cloudy
5:50 AM 55.4 °F 46.4 °F 72% 30.24 in 6.2 mi SSE 6.9 mph - N/A   Mostly Cloudy
6:20 AM 55.4 °F 46.4 °F 72% 30.24 in 6.2 mi SSE 6.9 mph - N/A   Mostly Cloudy
6:50 AM 57.2 °F 46.4 °F 67% 30.24 in - SSE 8.1 mph - N/A   Clear
7:20 AM 55.4 °F 46.4 °F 72% 30.21 in - SSE 6.9 mph - N/A   Clear
7:50 AM 55.4 °F 46.4 °F 72% 30.21 in - SSE 5.8 mph - N/A   Clear
8:00 AM 56 °F 47 °F 63% 30.24 in 12 mi SSE 6.7 mph - -   Mostly Cloudy
8:20 AM 55.4 °F 46.4 °F 72% 30.24 in - SSE 5.8 mph - N/A   Clear
8:50 AM 55.4 °F 46.4 °F 72% 30.24 in - SSE 6.9 mph - N/A   Clear
9:20 AM 55.4 °F 46.4 °F 72% 30.24 in 6.2 mi SSE 5.8 mph - N/A   Mostly Cloudy
9:50 AM 55.4 °F 46.4 °F 72% 30.24 in 6.2 mi SSE 5.8 mph - N/A   Mostly Cloudy
10:20 AM 55.4 °F 46.4 °F 72% 30.24 in 6.2 mi South 4.6 mph - N/A   Mostly Cloudy
10:50 AM 55.4 °F 46.4 °F 72% 30.24 in 6.2 mi SSE 5.8 mph 21.9 mph N/A   Mostly Cloudy
11:00 AM 55 °F 47 °F 68% 30.25 in 16 mi SSE 6.7 mph - -   Mostly Cloudy
11:20 AM 55.4 °F 48.2 °F 77% 30.24 in 6.2 mi SSE 6.9 mph - N/A   Mostly Cloudy
11:50 AM 55.4 °F 48.2 °F 77% 30.24 in 6.2 mi SSE 5.8 mph - N/A   Mostly Cloudy
12:20 PM 57.2 °F 48.2 °F 72% 30.24 in 6.2 mi SSE 8.1 mph 20.7 mph N/A   Mostly Cloudy
12:50 PM 59.0 °F 48.2 °F 67% 30.24 in - SSE 5.8 mph - N/A   Clear
1:20 PM 60.8 °F 48.2 °F 63% 30.21 in - SSE 8.1 mph - N/A   Clear
1:50 PM 62.6 °F 48.2 °F 59% 30.21 in - South 8.1 mph - N/A   Clear
2:00 PM 62 °F 49 °F 52% 30.22 in 19 mi South 8.9 mph - -   Mostly Cloudy
2:20 PM 62.6 °F 46.4 °F 55% 30.21 in - SSW 11.5 mph - N/A   Clear
2:50 PM 62.6 °F 48.2 °F 59% 30.21 in - SSW 8.1 mph - N/A   Clear
3:20 PM 62.6 °F 48.2 °F 59% 30.18 in - SSW 9.2 mph - N/A   Clear
3:50 PM 62.6 °F 48.2 °F 59% 30.18 in - SW 11.5 mph - N/A   Clear
4:20 PM 62.6 °F 50.0 °F 63% 30.18 in - SW 9.2 mph - N/A   Clear
4:50 PM 62.6 °F 50.0 °F 63% 30.18 in 6.2 mi SW 8.1 mph - N/A   Scattered Clouds
5:00 PM 63 °F 50 °F 52% 30.19 in 19 mi SW 8.9 mph - -   Partly Cloudy
5:20 PM 62.6 °F 50.0 °F 63% 30.18 in 6.2 mi WSW 6.9 mph - N/A   Mostly Cloudy
5:50 PM 59.0 °F 50.0 °F 72% 30.18 in 6.2 mi WSW 3.5 mph - N/A   Mostly Cloudy
6:20 PM 59.0 °F 51.8 °F 77% 30.18 in 6.2 mi SW 5.8 mph - N/A   Scattered Clouds
6:50 PM 60.8 °F 50.0 °F 68% 30.18 in 6.2 mi SSW 5.8 mph - N/A   Scattered Clouds
7:20 PM 60.8 °F 50.0 °F 68% 30.18 in 6.2 mi SSW 8.1 mph - N/A   Partly Cloudy
7:50 PM 59.0 °F 50.0 °F 72% 30.18 in 6.2 mi SSW 5.8 mph - N/A   Partly Cloudy
8:00 PM 59 °F 51 °F 67% 30.20 in 19 mi SSW 6.7 mph - -   Scattered Clouds
8:20 PM 59.0 °F 50.0 °F 72% 30.18 in 6.2 mi SSW 6.9 mph - N/A   Partly Cloudy
8:50 PM 59.0 °F 51.8 °F 77% 30.18 in 6.2 mi South 6.9 mph - N/A Rain Light Rain
9:20 PM 59.0 °F 51.8 °F 77% 30.18 in 6.2 mi SSW 8.1 mph - N/A Rain Light Rain
9:50 PM 59.0 °F 51.8 °F 77% 30.18 in 6.2 mi SSW 6.9 mph - N/A   Mostly Cloudy
10:20 PM 59.0 °F 51.8 °F 77% 30.18 in 6.2 mi South 6.9 mph - N/A   Mostly Cloudy
10:50 PM 59.0 °F 51.8 °F 77% 30.18 in 6.2 mi South 8.1 mph - N/A   Mostly Cloudy
11:00 PM 58 °F 51 °F 72% 30.19 in 12 mi South 8.9 mph - -   Partly Cloudy
11:20 PM 59.0 °F 51.8 °F 77% 30.18 in 6.2 mi South 8.1 mph - N/A   Mostly Cloudy
11:50 PM 59.0 °F 51.8 °F 77% 30.18 in 6.2 mi SSW 10.4 mph - N/A   Mostly Cloudy